Location: Gündelbach
(48.9934°N, 8.9415°E)
Time: 22:19:02
(UTC+00:00)

Cosmos 1763 Rocket - Pass Details

Date: 14 August 2025
Orbit: 727 x 774 km, 74.0° (Epoch: 12 April)

Event Time Altitude Azimuth Distance (km) Brightness Sun altitude
Exits shadow 23:51:55 11° 99° (E) 2,156 5.8 -26.5°
Drops below altitude 10° 23:53:56 10° 75° (ENE) 2,229 6.1 -26.4°
Enters shadow 00:56:47 -63° 202° (SSW) 12,214 9.6 -23.8°
Maximum altitude 01:33:16 80° 112° (ESE) 746 3.4 -21.0°
